#timestamp,LO_Frequency,Hit,StdDev 
1558789215.6,286047014.3,N
1558789235.5,286047014.3,N
1558789255.3,286047015.7,N
1558789275.1,286047014.7,N
1558789295.9,286047020.7,N
1558789315.7,286047023.3,N
1558789335.6,286047019.7,N
1558789355.4,286047024.8,N
1558789375.2,286047025.4,N
1558789395.1,286047027.7,N
1558789396.0,286047027.7,N
1558789415.8,286047022.5,N
1558789435.7,286047031.6,Y
1558789455.5,286047016.6,P
1558789475.3,286047013.5,P
1558789495.2,286047016.0,P
1558789515.0,286047021.6,Y
1558789515.9,286047021.6,P
1558789535.8,286047004.1,N
1558789555.6,286047004.1,N
1558789575.4,286047003.7,N
1558789595.3,286047003.9,N
1558789615.1,286047003.0,N
1558789635.8,286047003.9,N
1558789655.7,286047001.0,N
1558789675.5,286047000.6,N
1558789695.4,286046997.1,N
1558789715.2,286047002.4,N
1558789735.0,286047004.9,N
1558789735.9,286047004.9,N
1558789755.8,286047007.6,N
1558789775.6,286047006.6,N
1558789795.4,286047008.2,N
1558789815.3,286047005.0,N
1558789835.1,286047002.3,N
1558789855.9,286046998.9,N
1558789875.7,286047002.1,N
1558789895.5,286047008.7,N
1558789915.4,286047010.0,N
1558789935.2,286047012.0,N
1558789955.0,286047013.4,N
1558789956.0,286047013.4,N
1558789975.8,286047012.3,N
1558789995.6,286047012.4,N
1558790015.5,286047011.7,N
1558790035.3,286047011.5,N
1558790055.1,286047012.1,N
1558790075.9,286047016.9,Y
1558790095.7,286047015.6,P
1558790115.6,286047017.0,P
1558790135.4,286047015.7,P
1558790155.2,286047016.0,Y
1558790175.1,286047001.9,P
1558790176.0,286047001.9,N
1558790195.8,286047007.0,N
1558790215.6,286047003.6,N
1558790235.5,286046996.3,N
1558790255.3,286046990.4,N
1558790275.2,286046986.9,N
1558790295.0,286046984.1,N
1558790295.9,286046984.1,N
1558790315.7,286046980.6,N
1558790335.6,286046985.1,N
1558790355.4,286046986.5,N
1558790375.3,286046981.0,N
1558790395.1,286046979.9,N
1558790396.0,286046979.9,N
1558790415.8,286046980.9,N
1558790435.7,286046985.7,N
1558790455.5,286046987.0,N
1558790475.4,286046986.0,N
1558790495.2,286046985.4,N
1558790515.0,286046984.8,N
1558790515.9,286046984.8,N
1558790535.8,286046984.5,N
1558790555.6,286046985.0,N
1558790575.4,286046982.8,N
1558790595.3,286046982.3,N
1558790615.1,286046987.4,N
1558790635.9,286046982.4,N
1558790655.7,286046982.4,N
1558790675.5,286046985.8,N
1558790695.4,286046993.2,N
1558790715.2,286046993.0,N
1558790735.1,286046994.7,N
1558790736.0,286046994.7,N
1558790755.8,286046991.2,N
1558790775.6,286046989.1,N
1558790795.5,286046992.3,N
1558790815.3,286046997.2,N
1558790835.1,286046994.6,N
1558790855.9,286046993.9,N
1558790875.7,286046990.4,N
1558790895.6,286046991.5,N
1558790915.4,286046989.7,N
1558790935.2,286046987.6,N
1558790955.1,286046992.7,N
1558790956.0,286046992.7,N
1558790975.8,286046986.0,Y
1558790995.7,286046994.8,P
1558791015.5,286046987.4,P
1558791035.3,286046986.4,P
1558791055.2,286046984.4,Y
1558791075.0,286046997.7,P
1558791075.9,286046997.7,N
1558791095.7,286046996.6,N
1558791115.6,286047001.4,N
1558791135.4,286047002.9,N
1558791155.3,286047005.7,N
1558791175.1,286047000.1,N
1558791195.8,286046996.1,N
1558791215.7,286046994.1,N
1558791235.5,286046987.4,N
1558791255.4,286046984.3,Y
1558791275.2,286046991.1,P
1558791295.0,286046989.2,P
1558791295.9,286046989.2,P
1558791315.8,286046991.8,N
1558791335.6,286046993.9,N
1558791355.4,286046993.6,N
1558791375.3,286046991.9,Y
1558791395.1,286047002.0,P
1558791415.9,286047000.7,N
1558791435.7,286046994.2,N
1558791455.5,286046993.2,N
1558791475.4,286046991.5,N
1558791495.2,286046992.6,N
1558791515.1,286046992.5,N
1558791516.0,286046992.5,N
1558791535.8,286046992.4,N
1558791555.6,286046996.0,N
1558791575.5,286046997.0,N
1558791595.3,286046996.6,N
1558791615.1,286047001.1,N
1558791635.9,286047002.2,N
1558791655.7,286047002.1,N
1558791675.6,286047002.8,N
1558791695.4,286046995.4,N
1558791715.2,286046992.2,N
1558791735.1,286046989.3,N
1558791736.0,286046989.3,N
1558791755.8,286046989.6,N
1558791775.7,286046987.6,N
1558791795.5,286046992.4,N
1558791815.3,286046996.8,N
1558791835.2,286046998.4,N
1558791855.0,286046996.6,N
1558791855.9,286046996.6,N
1558791875.8,286046995.1,N
1558791895.6,286046993.8,N
1558791915.4,286046992.6,N
1558791935.3,286046991.8,N
1558791955.1,286046994.3,N
1558791975.8,286046990.2,N
1558791995.7,286046993.2,N
1558792015.5,286046985.3,Y
1558792035.4,286046989.4,P
1558792055.2,286046990.0,P
1558792075.0,286046989.7,P
1558792075.9,286046989.7,Y
1558792095.8,286047002.4,P
1558792115.6,286047003.5,N
1558792135.5,286047006.0,N
1558792155.3,286047004.6,N
1558792175.2,286047007.4,N
1558792195.9,286047002.0,N
1558792215.7,286047004.3,N
1558792235.6,286047004.3,N
1558792255.4,286047004.9,N
1558792275.2,286047008.8,N
1558792295.1,286047008.7,N
1558792296.0,286047008.7,N
1558792315.8,286047008.3,N
1558792335.7,286047006.6,N
1558792355.5,286047007.3,N
1558792375.3,286047007.7,N
1558792395.2,286047007.4,N
1558792415.0,286047006.8,N
1558792415.9,286047006.8,N
1558792435.8,286047005.9,N
1558792455.6,286047003.5,N
1558792475.4,286047004.3,N
1558792495.3,286047003.1,N
1558792515.1,286046999.7,N
1558792535.8,286046997.5,N
1558792555.7,286046997.8,N
1558792575.5,286046999.3,N
1558792595.4,286046998.2,N
1558792615.2,286047006.2,N
1558792635.0,286047012.4,Y
1558792635.9,286047012.4,P
1558792655.8,286047011.9,N
1558792675.6,286047015.1,P
1558792695.5,286047018.0,Y
1558792715.3,286047004.7,P
1558792735.1,286047006.6,N
1558792755.9,286047009.1,P
1558792775.7,286047010.7,Y
1558792795.6,286047003.3,P
